Content
SEND FEEDBACK

Daily
Averages
Monthly
Summary
Germany

GOTTINGEN, GERMANY


Home > Europe > Germany
Elevation: 561 feet     Latitude: 51 30N     Longitude: 009 57E

WEATHER
 
SELECT A DAY
Number of Records: 58,647;   Date Range: 7/4/96 - 7/23/14
 
SHARE

PRINT THIS DATA

[ ← Previous Day ]
WEATHER ALMANAC - JANUARY 31, 2013
[ Next Day → ]
[ °C ]   °F
Weather ElementAverageHighLow
Temperature42.5 °F44.6 °F (12:20 pm)41 °F (7:20 am)
Dewpoint33.8 °F35.6 °F (2:50 pm)32 °F (7:20 am)
Humidity71.4 %81 % (2:50 pm)61 % (12:20 pm)
Barometer29.81 in29.92 in (7:20 am)29.71 in (4:50 pm)
Wind Speed21.2 mph28.8 mph (3:50 pm)
Wind Gust48.3 mph (6:50 pm)
Weather ElementAverage
Visibility6 mi
Wind DirectionWSW (235.9 °)

Weather ElementTotal
Precipitation---
Heating Degree Days22.2 (Base 65)
Averaged from 27 records on January 31, 2013
WEATHER CONDITIONS BREAKOUT
WIND DIRECTION BREAKOUT
WEATHER BY HOUR - JANUARY 31, 2013
[ °C ]   °F
Local TimeTemperatureDewpointHumidityBarometerVisibilityWind DirectionWind SpeedGust SpeedPrecipitationEventsConditions
7:20 AM41.0 °F32.0 °F70 %29.92 in6.2 miWSW (240°)13.8 mphScattered Clouds
7:50 AM41.0 °F32.0 °F70 %29.92 in6.2 miWSW (240°)12.7 mphPartly Cloudy
8:20 AM41.0 °F32.0 °F70 %29.92 in6.2 miWSW (240°)15.0 mphPartly Cloudy
8:50 AM42.8 °F32.0 °F66 %29.92 in6.2 miWest (260°)15.0 mphPartly Cloudy
9:20 AM42.8 °F32.0 °F66 %29.92 inWSW (240°)13.8 mphClear
9:50 AM42.8 °F33.8 °F70 %29.92 inSSW (210°)15.0 mphClear
10:20 AM42.8 °F33.8 °F70 %29.89 inSSW (210°)18.4 mphClear
10:50 AM42.8 °F33.8 °F70 %29.86 inSSW (210°)23.0 mphClear
11:20 AM42.8 °F32.0 °F66 %29.86 in6.2 miSW (220°)25.3 mphMostly Cloudy
11:50 AM42.8 °F33.8 °F70 %29.86 in6.2 miSW (220°)23.0 mphMostly Cloudy
12:20 PM44.6 °F32.0 °F61 %29.83 in6.2 miSW (220°)24.2 mph35.7 mphMostly Cloudy
12:50 PM44.6 °F32.0 °F61 %29.80 in6.2 miSW (230°)24.2 mphMostly Cloudy
1:20 PM44.6 °F32.0 °F61 %29.80 in6.2 miSW (230°)21.9 mphMostly Cloudy
1:50 PM44.6 °F32.0 °F61 %29.77 in6.2 miSW (230°)25.3 mph41.4 mphLight Drizzle
2:20 PM42.8 °F33.8 °F70 %29.80 in5.0 miWSW (240°)25.3 mph39.1 mphRainLight Rain
2:50 PM41.0 °F35.6 °F81 %29.74 in3.7 miSW (220°)24.2 mphRainLight Rain
3:20 PM41.0 °F35.6 °F81 %29.74 in6.2 miSW (230°)26.5 mph38.0 mphScattered Clouds
3:50 PM41.0 °F35.6 °F81 %29.74 in6.2 miSW (230°)28.8 mph41.4 mphScattered Clouds
4:20 PM41.0 °F35.6 °F81 %29.74 in6.2 miSW (230°)24.2 mphLight Drizzle
4:50 PM41.0 °F35.6 °F81 %29.71 in6.2 miSW (230°)23.0 mphMostly Cloudy
5:20 PM42.8 °F35.6 °F76 %29.74 in6.2 miSW (230°)23.0 mph35.7 mphMostly Cloudy
5:50 PM42.8 °F35.6 °F76 %29.71 in6.2 miWSW (240°)20.7 mph33.4 mphScattered Clouds
6:20 PM44.6 °F35.6 °F71 %29.71 in6.2 miWSW (250°)20.7 mphMostly Cloudy
6:50 PM42.8 °F33.8 °F70 %29.74 in6.2 miWest (260°)28.8 mph48.3 mphRainLight Rain
7:20 PM41.0 °F35.6 °F81 %29.74 in6.2 miWest (270°)19.6 mph32.2 mphRainLight Rain
7:50 PM42.8 °F35.6 °F76 %29.74 in6.2 miWest (270°)17.3 mph31.1 mphScattered Clouds
8:20 PM42.8 °F33.8 °F70 %29.77 in6.2 miWest (270°)18.4 mph36.8 mphPartly Cloudy
Hourly data recorded from EDVK, located miles away from Gottingen, Germany







STORIES FROM OUR PARTNERS